OBJECT K, 59809

Orbit data source: Space-Track

You're viewing an Uncataloged Satellite

Recently launched and/or uncataloged satellites may have evolving metadata. Metadata may include but not limited to: Owner, Maufacturer, Bus, Motor, and Mission.

OBJECT K, 59809 is a satellite owned by Sitronics (CIS) in SSO that was launched on Thu, 16 May 2024 UTC via a SOYUZ-2-1B launch vehicle from the Plesetsk Missile And Space Complex (PKMTR). Unknown objects in Earth's orbit typically refer to objects detected orbiting the Earth but have not yet been identified or cataloged. These objects could be anything from previously untracked satellites, spent rocket stages, debris from satellite collisions, or even natural meteoroids temporarily captured by Earth's gravity.

Loading next visibility...
Identifier
59809, 2024-092K
Orbit
SSO
Last TLE update
17 hours ago
Origin
Manufacturer
Sputniks
Mission
Operational spacecraft
Bus & Motor
CUBESAT 3U?, Unknown motor
Mass
3 kg wet, 3 kg dry
Launch date (UTC)
2024-05-16 (1 year ago)
Launch vehicle
SOYUZ-2-1B
Launch site
Plesetsk Missile And Space Complex (PKMTR)
Object type
Unknown
Shape & HBR
Unknown
Radar Cross Section
Small (<0.1 m²)

Expand to show TLE details & history

TLE from 17 hours ago
0 OBJECT K
1 59809U 24092K   25128.55925533  .00014009  00000-0  62338-3 0  9992
2 59809  97.6165 246.2604 0011616 132.7619 227.4596 15.21535171 53436
Epoch: 2025-05-08T13:25Z
Definitive object data (Epoch: 2025-05-08T13:25:19.66Z)
Latitude
0.00002°
Longitude
178.30047°
Altitude
509.705 km
Speed
7.606 km/s
True Right ascension
16h 25m 02s
True Declination
0° 00' 00"
Sunlit
Object was in full shadow at TLE epoch
Visualization TLE readout
Latitude
-80.20153°
Longitude
-51.34321°
Altitude
534.755 km
Speed
7.591 km/s
Apparent Right ascension
02h 14m 19s
Apparent Declination
-61° 01' 16"
Sunlit
Object is in daylight
Visualization observer readout
Local Sidereal Time
14:30:26
Azimuth
174.609° S
Elevation
-68.749°
Doppler factor
1
Orbital elements
Apogee altitude
506.17 km
Perigee altitude
490.195 km
Semi-major axis
6,876.319 km
Eccentricity
0.0011616
Inclination
97.6165°
RAAN
246.2604°
Arg. of periapsis
132.7619°
True anomaly
227.36162°
Mean anomaly
227.4596°
Eccentric anomaly
227.4106°
Mean motion
3.80635 °/min
BSTAR
0.00062338
Orbital period
94.58 mins
Loading maneuver chart data...
Loading SW <> Apogee altitude chart data...
Loading historical data...
Loading historical data...
Loading historical data...
Loading historical data...
Loading historical data...
Loading historical data...
Loading historical data...

OBJECT K Visibility forecast

Observer location: undefined°, undefined°

Span
Click to sort rows by Start time (UTC) header in descending order
Start Az.
Max El. time (UTC)
Max El. Az.
Max El.
End time (UTC)
End Az.
4 mins2025-05-09 06:56:37.512Z102.862° ESE2025-05-09 06:58:37.512Z64.433° ENE16.987°2025-05-09 07:00:37.512Z28.763° NE
4 mins2025-05-09 08:30:37.512Z227.424° WSW2025-05-09 08:31:37.512Z252.264° W23.947°2025-05-09 08:34:37.512Z317.902° NNW
|